Location: Unspecified
(51.0950°N, 12.9690°E)
Time: 22:02:07
(UTC+00:00)

COSMOS 2428 - Pass Details

Date: 28 October 2021
Orbit: 845 x 857 km, 70.9° (Epoch: 01 December)

Event Time Altitude Azimuth Distance (km) Brightness Sun altitude
Rises 18:37:22 0° 209° (SSW) 3,393 6.0 -26.8°
Reaches altitude 10° 18:39:48 10° 209° (SSW) 2,462 5.3 -27.2°
Maximum altitude 18:45:28 87° 297° (WNW) 854 2.6 -28.1°
Enters shadow 18:45:33 86° 346° (NNW) 855 2.6 -28.1°
